Ashland, WI

12:52 AM CDT on April 24, 2018 (GMT -0500)
Kennedy Memorial

Weather History for KASX - November, 2011

Change the Weather History Date:

Monday, November 21, 2011

  Actual Average Record
Temperature  
Mean Temperature 20 °F 29 °F  
Max Temperature 33 °F 36 °F 72 °F (1990)
Min Temperature 8 °F 21 °F -8 °F (1978)
Degree Days  
Heating Degree Days 44 36  
Month to date heating degree days 658  
Cooling Degree Days 0 0  
Month to date cooling degree days 0  
Moisture  
Dew Point 17 °F    
Average Humidity 88    
Maximum Humidity 100    
Minimum Humidity 69    
Precipitation  
Precipitation 0.00 in - 0.38 in (1975)
Sea Level Pressure  
Sea Level Pressure 30.32 in    
Wind  
Wind Speed 2 mph (WSW)    
Max Wind Speed 7 mph    
Max Gust Speed -    
Visibility 8 miles    
Events Fog    
T = Trace of Precipitation, MM = Missing Value Source: NWS Daily Summary

Daily Weather History Graph

Daily Weather History Graph

Search for Another Location

Airport or City:

Astronomy

Nov. 21, 2011 Rise Set
Actual Time 7:13 AM CST 4:24 PM CST
Civil Twilight 6:40 AM CST 4:58 PM CST
Nautical Twilight 6:03 AM CST 5:35 PM CST
Astronomical Twilight 5:27 AM CST 6:11 PM CST
Moon 2:40 AM CST (11/21) 1:57 PM CST (11/21)
Length of Visible Light 10h 17m
Length of Day
9h 10m
Waning Crescent, 17% of the Moon is Illuminated
Nov 21
Waning Crescent
Nov 25
New
Dec 2
First Quarter
Dec 10
Full
Dec 17
Last Quarter

Hourly Weather History & Observations

Time (CST) Temp. Windchill Dew Point Humidity Pressure Visibility Wind Dir Wind Speed Gust Speed Precip Events Conditions
12:00 AM 8.6 °F - 6.8 °F 92% 30.32 in 10.0 mi Calm Calm - N/A   Scattered Clouds
12:07 AM 8.6 °F 2.0 °F 6.8 °F 92% 30.32 in 10.0 mi WSW 3.5 mph - N/A   Mostly Cloudy
12:53 AM 12.0 °F - 10.0 °F 92% 30.37 in 10.0 mi Calm Calm - N/A   Overcast
1:53 AM 16.0 °F - 12.9 °F 88% 30.36 in 10.0 mi Calm Calm - N/A   Overcast
3:53 AM 18.0 °F - 17.1 °F 96% 30.36 in 10.0 mi Calm Calm - N/A   Overcast
4:44 AM 19.4 °F - 17.6 °F 93% 30.31 in 10.0 mi Calm Calm - N/A   Overcast
4:53 AM 19.9 °F 14.9 °F 18.0 °F 92% 30.36 in 10.0 mi West 3.5 mph - N/A   Overcast
5:07 AM 19.4 °F - 15.8 °F 86% 30.31 in 10.0 mi Calm Calm - N/A   Overcast
5:53 AM 19.0 °F 12.3 °F 17.1 °F 92% 30.35 in 10.0 mi SSW 4.6 mph - N/A   Overcast
6:53 AM 18.0 °F 11.1 °F 15.1 °F 88% 30.36 in 10.0 mi WNW 4.6 mph - N/A   Mostly Cloudy
7:30 AM 17.6 °F - 14.0 °F 86% 30.31 in 8.0 mi Calm Calm - N/A   Mostly Cloudy
7:53 AM 17.1 °F 11.7 °F 15.1 °F 92% 30.37 in 8.0 mi WSW 3.5 mph - N/A   Mostly Cloudy
8:23 AM 19.4 °F 14.3 °F 17.6 °F 93% 30.31 in 8.0 mi WSW 3.5 mph - N/A   Scattered Clouds
8:32 AM 19.4 °F 14.3 °F 15.8 °F 86% 30.31 in 8.0 mi WSW 3.5 mph - N/A   Mostly Cloudy
8:42 AM 19.4 °F 14.3 °F 17.6 °F 93% 30.30 in 8.0 mi SW 3.5 mph - N/A   Scattered Clouds
8:53 AM 19.9 °F 14.9 °F 19.0 °F 96% 30.36 in 8.0 mi SW 3.5 mph - N/A   Partly Cloudy
9:53 AM 25.0 °F - 21.9 °F 88% 30.36 in 9.0 mi Calm Calm - N/A   Clear
10:53 AM 28.0 °F 21.7 °F 21.9 °F 78% 30.35 in 10.0 mi WSW 5.8 mph - N/A   Clear
11:53 AM 30.0 °F 23.2 °F 23.0 °F 75% 30.32 in 10.0 mi SW 6.9 mph - N/A   Clear
1:53 PM 33.1 °F 26.9 °F 24.1 °F 70% 30.30 in 10.0 mi West 6.9 mph - N/A   Clear
2:53 PM 33.1 °F 28.7 °F 24.1 °F 70% 30.29 in 10.0 mi West 4.6 mph - N/A   Clear
3:53 PM 32.0 °F - 23.0 °F 69% 30.29 in 10.0 mi Calm Calm - N/A   Clear
4:53 PM 26.1 °F - 21.9 °F 84% 30.30 in 10.0 mi Calm Calm - N/A   Clear
5:53 PM 24.1 °F 19.7 °F 21.9 °F 91% 30.30 in 10.0 mi SSW 3.5 mph - N/A   Clear
6:53 PM 21.9 °F 15.7 °F 19.9 °F 92% 30.30 in 10.0 mi WSW 4.6 mph - N/A   Clear
7:53 PM 21.9 °F 17.2 °F 19.9 °F 92% 30.32 in 9.0 mi West 3.5 mph - N/A   Clear
8:51 PM 15.8 °F - 12.2 °F 86% 30.28 in 1.8 mi Calm Calm - N/A   Clear
8:53 PM 16.0 °F - 12.9 °F 88% 30.33 in 1.5 mi Calm Calm - N/A   Clear
8:59 PM 15.8 °F - 15.8 °F 100% 30.28 in 0.2 mi Calm Calm - N/A Fog Light Freezing Fog
9:11 PM 19.4 °F - 15.8 °F 86% 30.28 in 0.2 mi Calm Calm - N/A Fog Light Freezing Fog
9:19 PM 19.4 °F - 15.8 °F 86% 30.27 in 0.8 mi Calm Calm - N/A   Mist
9:31 PM 15.8 °F - 15.8 °F 100% 30.27 in 1.2 mi Calm Calm - N/A   Partly Cloudy
9:40 PM 19.4 °F - 17.6 °F 93% 30.27 in 4.0 mi Calm Calm - N/A   Scattered Clouds
9:53 PM 16.0 °F - 14.0 °F 92% 30.32 in 6.0 mi Calm Calm - N/A   Mostly Cloudy
10:53 PM 23.0 °F - 21.0 °F 92% 30.31 in 9.0 mi Calm Calm - N/A   Overcast
11:53 PM 24.1 °F - 23.0 °F 96% 30.31 in 9.0 mi Calm Calm - N/A   Overcast